Погода в Пролетарском

Россия / Владимирская область     56°13′32″N   42°00′25″E
темп.,
°C
ветер,
м/с
пор.,
м/с
влажн.,
%
обл.,
%
осадки,
мм/ч
давл.,
гПа
погр.,
м
25 июля, вс
вс2500:00+14зсз1157100 0.0 101712
03:00+14з1257100 0.0 101823
06:00+13зсз236540 0.0 1019110
09:00+19сз22435 0.0 1020773
12:00+22зсз243258 0.0 10202596
15:00+21зсз443443 0.0 10202112
18:00+19ссз235113 0.0 1020390
21:00+16ю1156100 0.0 102113
26 июля, пн
пн2600:00+14з226559 0.0 102223
03:00+15зюз2263100 0.0 102242
06:00+15з2364100 0.0 102287
09:00+21з354472 0.0 1022754
12:00+24зюз463576 0.0 10222597
15:00+25з463369 0.0 10212532
18:00+23зсз364413 0.0 1021960
21:00+19зюз2252100 0.0 102134
27 июля, вт
вт2700:00+16з386748 0.0 1021136
03:00+15з35715 0.0 102184
06:00+16сз26751 0.0 1021160
09:00+23ссз245013 0.0 1021646
12:00+26ссз363972 0.0 10202480
15:00+22с2257100 0.1 1019170
18:00+24з145153 0.0 1018682
21:00+15всв249483 0.4 1019106
28 июля, ср
ср2800:00+15ююз239313 0.4 101841
03:00+14з119465 0.7 101810
06:00+16в00875 0.1 101741
09:00+22ююз11625 0.1 1016463
12:00+27ююз23411 0.0 10141675
15:00+28з2538100 0.0 10122302
18:00+24юз3654100 0.0 1011185
21:00+17з2390100 3.3 101150
29 июля, чт
чт2900:00+17зсз2796100 1.8 1011187
03:00+16ю2898100 6.7 1009426
06:00+17юв3798100 5.7 1007392
09:00+17юв379798 11.2 1006442
12:00+18ююз239295 0.1 1005437
15:00+18зюз139899 2.6 1004177
18:00+19з369339 1.1 1004488
21:00+17з389815 1.4 1005227